Home   Weather   Dawson Creek   Past weeks

Flag for Canada Past Weather in Dawson Creek, British Columbia, Canada — Yesterday and Last 2 Weeks

Now
-17 °F

Light snow. Overcast.


Feels Like: -29 °F
Forecast: -26 / -15 °F
Wind: 5 mph from West

Location: Dawson Creek Airport

Current Time: Dec 9, 2016 at 10:48:37 am

Latest Report: Dec 9, 2016 at 10:03 am


Visibility: 5 mi

Pressure: 30.65 "Hg (27.93 "Hg at 668m altitude)

Humidity: 83%

Dew Point: -20 °F

Location of Dawson CreekLocation

Past Weather in Dawson Creek — Graph

°F

Dawson Creek Temperature Yesterday

Maximum temperature yesterday: -15 °F (at 2:00 pm)
Minimum temperature yesterday: -24 °F (at 12:00 am)
Average temperature yesterday: -19 °F

High & Low Weather Summary for the Past Weeks

 TemperatureHumidityPressure
High39 °F (Dec 3, 2:00 am)100% (Nov 24, 9:54 am)31.00 "Hg (Nov 24, 9:54 am)
Low-26 °F (Dec 7, 5:52 am)51% (Dec 3, 4:00 pm)28.06 "Hg (Dec 8, 1:00 am)
Average7 °F82%30.05 "Hg
* Reported Nov 24 9:00 am — Dec 9 9:52 am, Dawson Creek, Weather by CustomWeather, © 2016

Note: Actual official high and low records may vary slightly from our data, if they occured in-between our weather recording intervals... More about our weather records

Advertising

Dawson Creek Weather History for the Previous 24 Hours

Scroll right to see more
 ConditionsComfort  
Time TempWeatherWind HumidityBarometerVisibility
9:52 am
Fri, Dec 9
-17 °FIce fog.5 mph76%30.65 "Hg5 mi
9:00 am-17 °FLight snow. Overcast.6 mph76%30.66 "Hg7 mi
8:57 am-17 °FLight snow. Overcast.6 mph76%30.66 "Hg7 mi
8:00 am-17 °FOvercast.6 mph76%30.66 "Hg6 mi
7:00 am-18 °FOvercast.6 mph83%30.67 "Hg8 mi
6:53 am-18 °FOvercast.6 mph83%30.67 "Hg8 mi
6:00 am-18 °FLow clouds.3 mph75%30.67 "Hg9 mi
5:00 am-20 °FLow clouds.5 mph75%30.69 "Hg7 mi
4:00 am-20 °FLight snow. Overcast.3 mph75%30.71 "Hg8 mi
3:00 am-22 °FOvercast.No wind68%30.72 "Hg9 mi
2:00 am-24 °FOvercast.No wind75%30.73 "Hg9 mi
1:00 am-26 °FOvercast.2 mph75%30.75 "Hg9 mi
12:00 am-24 °FPassing clouds.No wind75%30.75 "Hg9 mi
11:00 pm
Thu, Dec 8
-22 °FOvercast.6 mph75%30.76 "Hg9 mi
10:00 pm-22 °FPassing clouds.3 mph75%30.76 "Hg9 mi
9:00 pm-18 °FPassing clouds.5 mph75%30.76 "Hg9 mi
8:00 pm-18 °FOvercast.3 mph75%30.78 "Hg9 mi
7:00 pm-18 °FOvercast.2 mph75%30.79 "Hg9 mi
6:00 pm-18 °FPassing clouds.3 mph83%30.81 "Hg9 mi
5:54 pm-18 °FPassing clouds.3 mph83%30.81 "Hg7 mi
5:00 pm-17 °FIce fog.2 mph76%30.81 "Hg5 mi
4:00 pm-15 °FOvercast.3 mph83%30.82 "Hg9 mi
3:00 pm-15 °FOvercast.7 mph83%30.84 "Hg9 mi
2:00 pm-15 °FOvercast.5 mph76%30.86 "Hg8 mi
1:00 pm-17 °FLight snow. Overcast.5 mph83%30.89 "Hg8 mi
12:00 pm-17 °FOvercast.7 mph76%30.91 "Hg9 mi
11:00 am-17 °FLight snow. Overcast.6 mph76%30.93 "Hg9 mi
10:00 am-18 °FOvercast.5 mph75%30.93 "Hg9 mi
Weather by CustomWeather, © 2016

See weather overviewHow to use our weather pages